Location: Astronomy Club of Akron Observatory
(40.9700°N, 81.5606°W)
Time: 18:17:10
(UTC-04:00)

Daily predictions for brighter satellites

Satellite Brightness Start Highest point End
(mag) Time Altitude Azimuth Time Altitude Azimuth Time Altitude Azimuth
SL-08 ROCKET BODY 4.4 21:09:01 10° S 21:14:59 70° E 21:20:53 10° NNE
CENTAUR R/B 3.7 21:07:36 10° NW 21:15:22 61° WSW 21:23:31 10° SSE
Resurs 01 Rocket 4.1 21:14:07 10° SSW 21:17:34 22° W 21:21:03 10° NW
Meteor 2-6 Rocket 4.4 21:15:01 10° N 21:20:57 66° ENE 21:26:42 10° SSE
Cosmos 1939 Rocket 3.5 21:17:46 10° SE 21:21:20 36° ENE 21:24:58 10° N
Cosmos 1184 Rocket 4.4 21:20:28 10° SE 21:22:50 18° E 21:25:14 10° NE
ISS -3.2 21:19:41 10° SW 21:22:51 51° SE 21:26:03 10° ENE
Sich 1 Rocket 3.8 21:18:59 10° S 21:23:25 53° E 21:27:54 10° NNE
Cosmos 1238 Rocket 3.9 21:22:06 10° NNE 21:24:53 23° E 21:28:02 10° SE
Cosmos 1408 3.7 21:22:06 10° SSE 21:25:10 26° E 21:28:14 10° NNE
COSMOS 2406 3.9 21:24:45 10° NNW 21:30:23 57° WSW 21:35:57 10° S
SPOT 5 3.9 21:25:40 10° SE 21:30:25 35° ENE 21:35:15 10° N
TIMED 4.5 21:30:54 10° S 21:35:13 67° ESE 21:39:35 10° NNE
Cosmos 2278 Rocket 2.4 21:29:57 10° S 21:35:21 49° ESE 21:40:49 10° NE
Cosmos 1825 2.8 21:32:15 10° SSE 21:35:46 36° E 21:39:18 10° NNE
Cosmos 1844 Rocket 2.9 21:30:07 10° SSW 21:35:47 81° WNW 21:41:27 10° NNE
Coronas F rocket 3.8 21:34:34 10° SW 21:36:50 25° WNW 21:39:07 10° NNW
Cosmos 1975 Rocket 4.0 21:33:43 10° NNE 21:37:33 30° ENE 21:40:51 13° SE
Cosmos 2084 3.1 21:34:08 10° SSW 21:37:58 69° ESE 21:41:47 10° NE
Cosmos 676 Rocket 4.0 21:32:50 10° NNW 21:38:02 71° ENE 21:43:15 10° SSE
Cosmos 1174 3.0 21:35:47 10° NNW 21:39:00 78° ENE 21:41:30 14° SE
Cosmos 1844 3.7 21:35:05 10° SSW 21:40:50 83° ESE 21:46:40 10° NNE
BREEZE-M DEB (TANK) 3.3 21:39:14 10° W 21:41:06 29° SSW 21:43:47 12° SSE
Cosmos 1954 Rocket 4.2 21:36:51 10° NNW 21:42:01 59° ENE 21:46:48 12° SSE
Cosmos 2341 Rocket 4.2 21:38:46 10° SSE 21:44:51 53° E 21:50:55 10° NNE
Cosmos 1908 Rocket 3.5 21:42:50 10° S 21:47:12 75° E 21:51:40 10° N
Cosmos 1378 Rocket 3.6 21:44:03 10° N 21:48:20 62° E 21:52:24 11° SSE
Cosmos 1733 Rocket 4.3 21:44:08 10° SSW 21:48:21 45° W 21:52:35 10° N
COS B Rocket 3.3 21:44:40 10° N 21:48:37 55° E 21:51:57 11° SSE
Intercosmos 25 4.3 21:47:58 16° SE 21:49:42 23° E 21:52:17 10° NE
Cosmos 2082 Rocket 3.3 21:50:10 10° N 21:55:11 30° NE 21:58:57 15° ESE
Cosmos 962 Rocket 4.5 21:50:08 10° S 21:56:12 64° E 22:02:23 10° NNE
Nimbus 7 Rocket 4.4 21:52:18 10° NNE 21:58:14 68° ESE 22:04:12 10° S
deb Chang Zheng 4 3.6 21:54:09 10° NNE 21:58:36 81° ESE 22:03:02 10° SSW
Timation 2 Rocket 4.2 21:54:01 10° NNW 21:59:54 54° ENE 22:04:13 18° SE
GPS 2-05 Rocket1 3.7 22:02:41 10° WSW 22:06:06 34° S 22:07:26 25° SE
USA 245 4.2 22:05:04 22° ESE 22:06:34 32° ENE 22:10:16 10° N
EO 1 Delta rocket 4.2 22:00:47 10° N 22:06:53 89° ESE 22:11:48 10° S
Cosmos 2154 Rocket 4.1 22:03:35 10° S 22:09:48 78° W 22:16:02 10° N
Cosmos 2297 3.9 22:06:11 10° S 22:11:38 49° ESE 22:17:09 10° NE
BREEZE-M DEB (TANK) 4.5 22:11:00 10° WNW 22:13:40 35° N 22:19:50 10° ENE
Envisat 3.3 22:09:02 10° S 22:14:04 68° WSW 22:19:09 10° NNW
Cosmos 1862 4.0 22:11:46 10° SSW 22:15:46 57° W 22:19:48 10° N
H-2A R/B 2.5 22:12:34 12° S 22:16:25 61° WSW 22:20:36 10° NNW
Cosmos 2151 Rocket 4.4 22:16:23 25° SE 22:18:04 33° E 22:22:08 10° NNE
CZ-3C R/B 4.0 22:01:48 10° WSW 22:19:30 21° SSW 22:23:56 15° SSE
Cosmos 1606 4.1 22:17:19 10° NNW 22:21:00 38° W 22:24:39 10° SSW
Cosmos 489 Rocket 4.4 22:15:03 10° NNW 22:21:17 88° WSW 22:25:48 20° SSE
COSMOS 2487 3.0 22:17:47 10° NNW 22:21:20 56° WSW 22:23:26 22° S
CZ-4 R/B 4.4 22:17:48 10° NNE 22:22:03 34° E 22:23:30 28° SE
APEX 3.4 22:18:33 10° SSW 22:22:23 74° ESE 22:27:26 10° NNE
Cosmos 614 Rocket 4.0 22:19:09 10° NNW 22:24:12 61° ENE 22:26:48 28° SE
Cosmos 1420 Rocket 4.0 22:21:01 10° SSW 22:26:16 88° WNW 22:31:31 10° NNE
MetOp-B 4.1 22:25:27 20° SSE 22:29:15 85° WSW 22:34:39 10° NNW
BREEZE-M DEB (TANK) 4.2 22:30:34 10° NW 22:32:01 16° N 22:33:53 10° NE
CZ-4 SHROUD 3.4 22:32:36 38° S 22:33:35 65° WSW 22:36:40 10° NNW
PSLV R/B 3.5 22:33:20 36° SSW 22:34:14 55° W 22:37:09 10° NNW
Cosmos 2366 rocket 4.1 22:32:20 23° SSE 22:36:17 57° E 22:42:29 10° NNE
Cosmos 1140 Rocket 3.7 22:31:25 10° NNW 22:36:31 67° WSW 22:39:36 24° S
Okean 3 4.4 22:33:59 10° NNW 22:38:04 45° W 22:41:10 16° SSW
USA 234 3.9 22:36:03 10° ENE 22:41:43 31° SE 22:43:01 29° SSE
CZ-4C R/B 4.1 22:41:21 34° E 22:42:01 36° ENE 22:45:49 10° N
Landsat 7 4.3 22:40:33 33° ESE 22:42:02 44° ENE 22:46:35 10° N
H-2A R/B 2.7 22:42:13 30° ESE 22:44:10 42° ENE 22:49:07 10° N
CZ-4B R/B 3.3 22:42:17 10° NNE 22:47:14 85° ESE 22:50:13 24° SSW
ARGOS 3.1 22:46:31 32° SSE 22:49:08 88° ENE 22:54:31 10° NNW
Okean 2 Rocket 4.1 22:45:29 10° SSW 22:49:43 45° WNW 22:53:58 10° N
Timation 1 Rocket 4.5 22:46:57 28° S 22:49:53 51° ESE 22:55:40 10° NE
SL-08 RB Rocket 3.6 22:49:27 41° SSE 22:51:02 79° ENE 22:55:41 10° N
Cosmos 1242 Rocket 3.9 22:53:10 10° NNW 22:56:33 35° W 22:58:03 25° SW
YAOGAN 6 3.8 22:56:00 27° SW 22:57:12 36° W 23:00:29 10° NNW
Terra 2.3 22:56:47 39° ESE 22:57:46 44° ENE 23:02:17 10° N
OAO 3 Rocket 4.0 22:54:24 10° WSW 22:58:13 35° S 22:58:13 35° S
ISS -0.9 22:56:43 10° W 22:59:28 24° NNW 23:02:13 10° NE
SPOT 1/Viking Rocket 3.8 22:57:07 30° S 22:59:40 65° WSW 23:04:53 10° NNW
NOSS 8 (F) 4.3 23:01:46 83° SSW 23:01:53 89° SE 23:05:34 10° NE
Meteor 1-20 Rocket 4.2 23:01:01 41° SSE 23:02:48 61° E 23:08:16 10° NNE
Cosmos 2218 Rocket 4.2 23:00:21 18° SSW 23:05:18 75° W 23:11:44 10° N
Spot 4 4.3 23:11:30 44° E 23:12:11 47° ENE 23:16:51 10° N
Cosmos 1833 Rocket 2.6 23:10:14 10° NNW 23:15:52 80° WSW 23:17:28 49° S
AVUM R/B 3.7 23:12:21 10° NNW 23:15:23 64° NNW 23:15:23 64° NNW
CARTOSAT-1 3.4 23:15:44 68° ESE 23:16:01 71° ENE 23:20:19 10° N
Meteor 1-25 Rocket 4.3 23:15:15 33° SSW 23:18:00 84° W 23:23:52 10° N
Okean 1 3.4 23:14:43 10° N 23:18:36 66° ENE 23:18:36 66° ENE
DELTA 2 DEB (DPAF) 4.1 23:18:43 64° S 23:19:22 79° WSW 23:23:52 10° NNW
Meteor 2-19 Rocket 4.4 23:16:38 36° S 23:19:22 89° WSW 23:25:31 10° N
Cosmos 2278 Rocket 4.3 23:15:02 10° WSW 23:19:42 26° NW 23:24:24 10° N
Cosmos 1727 Rocket 4.0 23:13:45 10° N 23:19:56 77° W 23:22:23 39° S
Lacrosse 5 2.9 23:25:04 32° ENE 23:25:04 32° ENE 23:28:04 10° NE
Cosmos 1536 Rocket 4.2 23:24:00 10° NNW 23:28:21 51° W 23:29:10 44° SW
USA 229 DEB 3.9 23:24:09 10° NW 23:31:12 66° WSW 23:33:32 44° S
USA 229 3.9 23:24:15 10° NW 23:31:18 67° WSW 23:33:38 44° S
Iridium 4 Rocket 4.3 23:29:05 10° NNE 23:34:41 43° E 23:35:10 42° E
ASTEX 1 3.2 23:33:02 10° N 23:38:01 76° E 23:38:12 75° ESE
BREEZE-M DEB (TANK) 3.8 23:31:25 10° WNW 23:38:16 34° SW 23:38:18 34° SW
Cosmos 2082 Rocket 3.1 23:34:04 10° NW 23:39:21 40° WSW 23:40:49 34° SW
Cosmos 1812 3.4 23:35:55 10° NNW 23:39:21 50° WNW 23:39:21 50° WNW
Cosmos 1331 Rocket 4.3 23:43:57 43° SW 23:45:30 64° WNW 23:50:38 10° NNE
DMSP B5D2-2 4.2 23:41:36 10° N 23:46:48 70° WNW 23:48:00 51° SW
Meteor 2-4 Rocket 4.2 23:42:42 10° N 23:47:55 44° ENE 23:48:06 43° E
NOSS 3-1 (A) 4.3 23:42:09 10° NNW 23:49:35 59° NE 23:52:37 39° ESE
Cosmos 1821 Rocket 3.9 23:52:02 62° SE 23:52:50 69° E 23:59:01 10° NNE
IGS 5A 4.2 23:54:28 46° W 23:54:28 46° W 23:58:08 10° NNW
